Printer-friendly version

IAU Minor Planet Center

Minor Planet Center

MPEC 2008-J72 : 2008 CT190

The following Minor Planet Electronic Circular may be linked-to from your own Web pages, but must not otherwise be redistributed electronically.


Read MPEC 2008-J71 Read MPEC 2008-J73


M.P.E.C. 2008-J72                                Issued 2008 May 15, 00:13 UT

     The Minor Planet Electronic Circulars contain information on unusual
         minor planets and routine data on comets.  They are published
   on behalf of Commission 20 of the International Astronomical Union by the
          Minor Planet Center, Smithsonian Astrophysical Observatory,
                          Cambridge, MA 02138, U.S.A.

             Prepared using the Tamkin Foundation Computer Network

                              MPC@CFA.HARVARD.EDU
          URL http://www.cfa.harvard.edu/iau/mpc.html  ISSN 1523-6714

                                  2008 CT190

Observations:
     K08CJ0T* C2008 02 09.48728 09 52 54.32 +38 53 04.1          21.1 R EJ072675
     K08CJ0T  C2008 02 09.53457 09 52 53.98 +38 53 05.3          21.0 R EJ072675
     K08CJ0T  C2008 02 10.35833 09 52 48.43 +38 53 39.3          21.5 R EJ072675
     K08CJ0T  C2008 02 10.40611 09 52 48.16 +38 53 41.0          21.3 R EJ072675
     K08CJ0T  C2008 02 27.15774 09 50 54.76 +39 02 55.5                 EJ072688
     K08CJ0T  C2008 02 27.24540 09 50 54.16 +39 02 57.5                 EJ072688
     K08CJ0T  C2008 03 12.14846 09 49 26.22 +39 07 22.4                 EJ072675
     K08CJ0T  C2008 03 12.29903 09 49 25.29 +39 07 24.1                 EJ072675
     K08CJ0T  C2008 03 12.36855 09 49 24.88 +39 07 25.1                 EJ072675
     K08CJ0T  C2008 04 02.20838 09 47 40.30 +39 08 03.1                 EJ072675
     K08CJ0T  C2008 05 03.24090 09 46 35.56 +38 57 08.6                 EJ072675
     K08CJ0T  C2008 05 04.21209 09 46 35.56 +38 56 36.8                 EJ072675

Observer details:
675 Palomar Mountain.  Observers M. E. Schwamb, M. E. Brown, D. Rabinowitz.
    1.2-m Oschin Schmidt + CCD.
688 Lowell Observatory, Anderson Mesa Station.  Observer H. Roe.  0.75-m f/16
    reflector + CCD.

Orbital elements:
2008 CT190
Epoch 2008 Mar. 15.0 TT = JDT 2454540.5                 MPC
M 352.04973              (2000.0)            P               Q
n   0.00252348     Peri.   57.89969     -0.76649508     -0.20158984
a  53.4322009      Node   103.68285     +0.11910374     -0.97760970
e   0.3578129      Incl.   38.87356     +0.63110981     -0.06033918
P 391              H    6.1           G   0.15
From 12 observations 2008 Feb. 9-May 4.

Ephemeris:
2008 CT190               a,e,i = 53.43, 0.36, 39                 q = 34.313
Date    TT    R. A. (2000) Decl.     Delta      r     Elong.  Phase     V
2008 05 14    09 46.72   +38 50.7   34.853   34.738    82.6     1.7    21.7
2008 05 24    09 47.07   +38 43.9   35.001   34.735    74.0     1.6    21.7
2008 06 03    09 47.65   +38 36.5   35.142   34.732    65.4     1.5    21.7
2008 06 13    09 48.43   +38 28.7   35.271   34.730    57.1     1.4    21.7
2008 06 23    09 49.40   +38 20.8   35.385   34.727    49.1     1.3    21.7
2008 07 03    09 50.53   +38 12.8   35.480   34.724    41.4     1.1    21.7
2008 07 13    09 51.82   +38 05.1   35.556   34.722    34.4     0.9    21.7

Brian G. Marsden             (C) Copyright 2008 MPC           M.P.E.C. 2008-J72

Read MPEC 2008-J71 Read MPEC 2008-J73


Our Web policy. Index to the CBAT/MPC/ICQ pages.


Valid HTML 4.01!